Weather Roundup
Issued by NWS Corpus Christi, TX

Home | Current Version | Previous Version | Text Only | Print | Product List | Glossary On
Versions: 1 2 3 4 5 6 7 8 9 10 11 12 13 14 15 16 17 18 19 20 21 22 23 24 25 26 27 28 29 30 31 32 33 34 35 36 37 38 39 40 41 42 43 44 45 46 47 48 49 50
000
ASUS44 KCRP 302010
HRRCRP

SOUTH TEXAS REGIONAL WEATHER ROUNDUP
NATIONAL WEATHER SERVICE CORPUS CHRISTI TX
200 PM CST FRI JAN 30 2015


TXZ229>244-302100-
...CORPUS CHRISTI AREA OBSERVATIONS...

CITY           SKY/WX    TMP DP  RH WIND       PRES   REMARKS
CORPUS CHRISTI PTSUNNY   65  50  58 E20       30.28F
NAS CORPUS CHR PTSUNNY   62  51  67 NE20G28   30.29F
ROCKPORT       SUNNY     64  48  56 E15       30.30F
KINGSVILLE NAS PTSUNNY   67  53  61 E16       30.28F
ALICE          SUNNY     70  48  45 E14       30.27F
FALFURRIAS     MOSUNNY   71  51  50 E15       30.25F
$$

...VICTORIA AREA OBSERVATIONS...

CITY           SKY/WX    TMP DP  RH WIND       PRES   REMARKS
VICTORIA       PTSUNNY   62  45  53 NE9       30.32F
BEEVILLE       FAIR      66  45  46 E12G17    30.29F
PLEASANTON     MOSUNNY   63  40  43 E12       30.30F
SAN ANTONIO    CLOUDY    61  40  45 E12       30.31F
$$

...LAREDO AREA OBSERVATIONS...

CITY           SKY/WX    TMP DP  RH WIND       PRES   REMARKS
LAREDO         MOSUNNY   71  48  43 E10       30.24F
DEL RIO        CLOUDY    58  36  43 S7        30.26F
MCALLEN        CLOUDY    72  58  61 E15G22    30.23F
HEBBRONVILLE   SUNNY     70  47  44 E12G17    30.25F
$$

...OTHER TEXAS OBSERVATIONS...

CITY           SKY/WX    TMP DP  RH WIND       PRES   REMARKS
BROWNSVILLE    PTSUNNY   71  62  73 NE16      30.24F
HOUSTON        PTSUNNY   61  37  41 VRB3      30.34F
COL. STATION   SUNNY     58  35  42 NE8       30.35F
AUSTIN         PTSUNNY   56  39  53 NE9       30.34F
WACO           PTSUNNY   53  34  48 NE5       30.37F
FORT WORTH     PTSUNNY   55  30  38 NE8       30.39F
WICHITA FALLS  PTSUNNY   49  29  46 NE5       30.39F
LUBBOCK        CLOUDY    43  28  55 E13       30.30F
EL PASO        LGT RAIN  46  37  71 E13       30.14F
$$

...MARINE OBSERVATIONS...

STATION/POSITION TIME  SKY/WX   TEMP    WIND        PRES    VSBY  WAVE   SWELL
                                AIR SEA DIR/SP/G                  HT/PER HT/PER
                 (UTC)          (F)     (DEG/KT/KT) (MB)    (MI)  (FT/S) (FT/S)
PORT ARANSAS     2000            57 61   50/ 20/ 23 1026.4F
BUOY 90 E PORT A 2000            61 67   50/ 16/ 19 1026.3F         6/ 7
BUOY 45 SE BAFFI 2000            66 68   60/ 16/ 19 1024.2F         5/ 6
BUOY 200 E PT IS 2000            70 73   80/ 10/ 12 1023.3F         2/ 4   2/ 5
BUOY 15 E GALVES 2000            52 58   50/ 14/ 16 1027.1F         4/ 5
$$


USA.gov is the U.S. government's official web portal to all federal, state and local government web resources and services.